STARLINK-4663, 53724

Orbit data source: Space-Track

STARLINK-4663, 53724 is a payload satellite owned by SpaceX/Seattle (US) in LEO that was launched on Mon, 05 Sep 2022 UTC via an FALCON 9 launch vehicle from the Air Force Eastern Test Range (AFETR). Payload-class satellites include a variety of spacecraft equipped with specific instruments for various scientific and technological missions. These include communications satellites like Starlink; space stations such as the ISS; scientific satellites like the Hubble; Earth observation satellites from companies like Planet Labs, Umbra, and HawkEye 360; GPS; miniature CubeSats for education and research; and military/defense satellites.

Loading next visibility...
Identifier
53724, 2022-107AA
Orbit
LEO
Country
Flag of USUS
Related business
Manufacturer
SpaceX/Seattle
Mission
Operational Commercial Communications
Bus & Motor
STARLINK, Unknown motor
Mass
305 kg wet, ~290 kg dry
Launch date (UTC)
2022-09-05 (4 years ago)
Launch vehicle
FALCON 9
Launch site
Air Force Eastern Test Range (AFETR)
Object type
Payload
Rocket body
Debris
Shape & HBR
Box + 1 Pan, 10.1 m
Radar Cross Section
13.562 m², Large (>1 m²)

Expand to show TLE details & history
Last TLE update: 2 days ago

TLE from 2 days ago
0 STARLINK-4663
1 53724U 22107AA  26171.34308319  .00000512  00000-0  50258-4 0  9993
2 53724  53.1587 152.9735 0001107 100.5677 259.5439 15.08820675209919
Epoch: 2026-06-20T08:14Z
TLE epoch observation values (Epoch: 2026-06-20T08:14:02.387Z)
Latitude
-0.00004°
Longitude
120.90445°
Altitude
540.833 km
Speed
7.593 km/s
True Right ascension
10h 11m 53s
True Declination
0° 00' 00"
Sunlit
Object was in daylight at epoch
Visualization orbit readout
Latitude
Unknown
Longitude
Unknown
Altitude
Unknown
Speed
Unknown
Apparent Right ascension
Unknown
Apparent Declination
Unknown
Sunlit
N/A
Visualization observer readout
Local Sidereal Time
00:38:31
Azimuth
Unknown
Elevation
Unknown
Doppler factor
Unknown
Orbital elements
Apogee altitude
540.823 km
Perigee altitude
539.291 km
Semi-major axis
6,918.194 km
Eccentricity
0.00011
Inclination
53.1587°
RAAN
152.9735°
Arg. of periapsis
100.5677°
True anomaly
259.53143°
Mean anomaly
259.5439°
Eccentric anomaly
259.53766°
Mean motion
3.77185 °/min
Orbital period
95.44 mins
BSTAR
0.000050258
Loading maneuver chart data...
Computing Atmospheric mass density...

Documentation

Showing up to 5 results
|